Date String (YYYY-MM-DD hh:mm:ss) UTC,Instrument flags,absolute air pressure of the measurement (hPa),sample flow rate (lpm),inlet stack bypass flow (lpm),air temperature of the measurement (°C),ambient temperature measured by the external sensor (°C),aerosol sample conditioner tube jacket temperature (°C),OPC LED temperature (°C),internal box temperature (°C),relative humidity of the measurement (%),span deviation,mass concentration of particles derived from Lorenz-Mie calculation of OPC scattering (μg/m³),mass concentration of particles derived from Lorenz-Mie calculation of OPC scattering (μg/m³),mass concentration of particles derived from Lorenz-Mie calculation of OPC scattering (μg/m³)
DateTimeUTC,F1_M11,P_M11,Q1_M11,Q2_M11,T1_M11,T2_M11,T3_M11,T4_M11,T5_M11,U1_M11,ZSPAN_M11,X0_M11,X2_M11,X1_M11
2024-03-29 06:00:00,SystemResetWarning,0820.2,5.01,000.00,022.4,021.5,000.0,031.0,024.2,13.6,0000.0,0006.82,0002.91,0001.60
2024-03-29 06:01:00,SystemResetWarning,0820.2,5.00,000.00,022.4,021.5,000.0,031.0,024.2,13.7,0000.0,0007.02,0002.90,0001.60
2024-03-29 06:02:00,SystemResetWarning,0820.2,5.01,000.00,022.4,021.5,000.0,031.0,024.2,13.8,0000.0,0007.40,0002.89,0001.60
2024-03-29 06:03:00,SystemResetWarning,0820.2,5.00,000.00,022.4,021.5,000.0,031.0,024.2,14.1,0000.0,0007.53,0002.87,0001.60
2024-03-29 06:04:00,SystemResetWarning,0820.2,5.00,000.00,022.4,021.6,000.0,031.0,024.3,14.2,0000.0,0007.42,0002.83,0001.60
2024-03-29 06:05:00,SystemResetWarning,0820.3,4.99,000.00,022.4,021.6,000.0,031.0,024.2,13.6,0000.0,0007.57,0002.87,0001.60
2024-03-29 06:06:00,SystemResetWarning,0820.2,4.99,000.00,022.4,021.5,000.0,031.0,024.2,13.2,0000.0,0007.57,0002.83,0001.59
2024-03-29 06:07:00,SystemResetWarning,0820.2,5.00,000.00,022.4,021.5,000.0,031.0,024.2,13.2,0000.0,0007.26,0002.77,0001.60
2024-03-29 06:08:00,SystemResetWarning,0820.2,5.01,000.00,022.4,021.4,000.0,031.0,024.2,13.1,0000.0,0006.76,0002.75,0001.60
2024-03-29 06:09:00,SystemResetWarning,0820.3,5.01,000.00,022.3,021.4,000.0,031.0,024.2,13.2,0000.0,0006.60,0002.71,0001.60
2024-03-29 06:10:00,SystemResetWarning,0820.3,4.99,000.00,022.3,021.4,000.0,031.0,024.1,13.2,0000.0,0006.75,0002.73,0001.62
2024-03-29 06:11:00,SystemResetWarning,0820.3,4.98,000.00,022.3,021.4,000.0,031.0,024.1,13.2,0000.0,0006.78,0002.69,0001.60
2024-03-29 06:12:00,SystemResetWarning,0820.4,5.00,000.00,022.3,021.4,000.0,031.0,024.1,13.2,0000.0,0006.41,0002.62,0001.59
2024-03-29 06:13:00,SystemResetWarning,0820.3,5.00,000.00,022.3,021.4,000.0,031.0,024.2,13.0,0000.0,0005.84,0002.59,0001.59
2024-03-29 06:14:00,SystemResetWarning,0820.4,5.01,000.00,022.3,021.4,000.0,030.9,024.2,13.0,0000.0,0005.58,0002.60,0001.60
2024-03-29 06:15:00,SystemResetWarning,0820.4,5.00,000.00,022.3,021.4,000.0,030.9,024.2,12.9,0000.0,0005.78,0002.63,0001.59
2024-03-29 06:16:00,SystemResetWarning,0820.4,5.00,000.00,022.3,021.5,000.0,030.9,024.2,12.9,0000.0,0006.60,0002.61,0001.60
2024-03-29 06:17:00,SystemResetWarning,0820.3,5.00,000.00,022.3,021.5,000.0,030.9,024.2,12.7,0000.0,0007.20,0002.65,0001.60
2024-03-29 06:18:00,SystemResetWarning,0820.4,5.00,000.00,022.3,021.5,000.0,030.9,024.2,12.9,0000.0,0007.27,0002.67,0001.60
2024-03-29 06:19:00,SystemResetWarning,0820.6,5.01,000.00,022.3,021.5,000.0,030.9,024.2,13.0,0000.0,0007.12,0002.68,0001.60
2024-03-29 06:20:00,SystemResetWarning,0820.7,4.99,000.00,022.3,021.5,000.0,030.9,024.2,13.0,0000.0,0007.36,0002.69,0001.61
2024-03-29 06:21:00,SystemResetWarning,0821.0,4.99,000.00,022.3,021.5,000.0,030.9,024.2,13.1,0000.0,0007.57,0002.75,0001.59
2024-03-29 06:22:00,SystemResetWarning,0820.9,5.00,000.00,022.4,021.5,000.0,030.9,024.2,13.7,0000.0,0007.66,0002.77,0001.58
2024-03-29 06:23:00,SystemResetWarning,0820.6,5.01,000.00,022.4,021.6,000.0,030.9,024.2,14.1,0000.0,0007.91,0002.81,0001.58
2024-03-29 06:24:00,SystemResetWarning,0820.4,5.01,000.00,022.4,021.6,000.0,030.9,024.2,14.3,0000.0,0008.00,0002.83,0001.59
2024-03-29 06:25:00,SystemResetWarning,0820.5,4.99,000.00,022.4,021.6,000.0,030.9,024.3,14.3,0000.0,0007.93,0002.80,0001.60
2024-03-29 06:26:00,SystemResetWarning,0820.9,5.00,000.00,022.4,021.6,000.0,030.9,024.2,14.3,0000.0,0007.91,0002.81,0001.62
2024-03-29 06:27:00,SystemResetWarning,0820.8,5.00,000.00,022.4,021.6,000.0,030.9,024.3,14.4,0000.0,0007.55,0002.81,0001.64
2024-03-29 06:28:00,SystemResetWarning,0820.5,4.99,000.00,022.4,021.6,000.0,030.9,024.3,14.5,0000.0,0006.57,0002.78,0001.65
2024-03-29 06:29:00,SystemResetWarning,0820.5,5.00,000.00,022.4,021.6,000.0,030.9,024.3,14.6,0000.0,0006.20,0002.83,0001.66
2024-03-29 06:30:00,SystemResetWarning,0820.6,5.00,000.00,022.4,021.6,000.0,030.9,024.3,14.8,0000.0,0006.31,0002.90,0001.67
2024-03-29 06:31:00,SystemResetWarning,0820.5,5.00,000.00,022.4,021.6,000.0,030.9,024.3,15.1,0000.0,0006.26,0002.96,0001.68
2024-03-29 06:32:00,SystemResetWarning,0820.5,5.00,000.00,022.4,021.6,000.0,030.9,024.3,15.2,0000.0,0006.09,0003.01,0001.71
2024-03-29 06:33:00,SystemResetWarning,0820.5,4.99,000.00,022.4,021.6,000.0,030.9,024.3,15.3,0000.0,0005.75,0002.99,0001.74
2024-03-29 06:34:00,SystemResetWarning,0820.7,4.99,000.00,022.4,021.6,000.0,030.9,024.3,15.4,0000.0,0005.45,0003.01,0001.76
2024-03-29 06:35:00,SystemResetWarning,0820.6,4.99,000.00,022.4,021.6,000.0,031.0,024.3,15.4,0000.0,0005.45,0003.08,0001.79
2024-03-29 06:36:00,SystemResetWarning,0820.6,5.00,000.00,022.4,021.6,000.0,031.0,024.3,15.5,0000.0,0006.24,0003.13,0001.81
2024-03-29 06:37:00,SystemResetWarning,0820.7,5.00,000.00,022.4,021.6,000.0,031.0,024.3,15.5,0000.0,0007.31,0003.13,0001.82
2024-03-29 06:38:00,SystemResetWarning,0820.6,5.01,000.00,022.4,021.6,000.0,031.0,024.3,15.3,0000.0,0007.34,0003.14,0001.81
2024-03-29 06:39:00,SystemResetWarning,0820.5,5.00,000.00,022.4,021.6,000.0,031.0,024.2,15.1,0000.0,0007.39,0003.16,0001.83
2024-03-29 06:40:00,SystemResetWarning,0820.6,5.00,000.00,022.4,021.6,000.0,031.0,024.2,15.0,0000.0,0007.80,0003.19,0001.85
2024-03-29 06:41:00,SystemResetWarning,0820.6,5.00,000.00,022.4,021.6,000.0,031.0,024.2,15.0,0000.0,0007.79,0003.17,0001.87
2024-03-29 06:42:00,SystemResetWarning,0820.6,4.99,000.00,022.4,021.6,000.0,031.0,024.2,14.9,0000.0,0007.91,0003.19,0001.90
2024-03-29 06:43:00,SystemResetWarning,0820.6,5.00,000.00,022.4,021.6,000.0,031.0,024.2,14.7,0000.0,0007.98,0003.20,0001.90
2024-03-29 06:44:00,SystemResetWarning,0820.8,4.99,000.00,022.4,021.6,000.0,031.0,024.2,14.7,0000.0,0008.07,0003.20,0001.91
2024-03-29 06:45:00,SystemResetWarning,0820.8,4.99,000.00,022.4,021.6,000.0,031.0,024.2,14.5,0000.0,0008.09,0003.20,0001.90
2024-03-29 06:46:00,SystemResetWarning,0820.8,5.01,000.00,022.4,021.6,000.0,030.9,024.2,14.5,0000.0,0008.15,0003.18,0001.90
2024-03-29 06:47:00,SystemResetWarning,0820.9,5.01,000.00,022.4,021.6,000.0,030.9,024.2,14.9,0000.0,0007.92,0003.17,0001.89
2024-03-29 06:48:00,SystemResetWarning,0820.8,5.00,000.00,022.4,021.6,000.0,030.9,024.2,15.0,0000.0,0007.32,0003.17,0001.89
2024-03-29 06:49:00,SystemResetWarning,0820.7,4.99,000.00,022.4,021.6,000.0,030.9,024.2,14.9,0000.0,0007.74,0003.16,0001.90
2024-03-29 06:50:00,SystemResetWarning,0820.8,5.00,000.00,022.4,021.6,000.0,030.9,024.2,14.5,0000.0,0008.30,0003.13,0001.89
2024-03-29 06:51:00,SystemResetWarning,0820.9,5.02,000.00,022.4,021.6,000.0,030.9,024.2,14.4,0000.0,0007.97,0003.07,0001.87
2024-03-29 06:52:00,SystemResetWarning,0820.6,4.99,000.00,022.4,021.6,000.0,030.9,024.2,14.6,0000.0,0007.93,0003.11,0001.88
2024-03-29 06:53:00,SystemResetWarning,0820.7,4.99,000.00,022.4,021.6,000.0,030.9,024.2,14.8,0000.0,0007.96,0003.15,0001.89
2024-03-29 06:54:00,SystemResetWarning,0820.8,5.00,000.00,022.4,021.6,000.0,030.9,024.2,15.0,0000.0,0007.85,0003.11,0001.89
2024-03-29 06:55:00,SystemResetWarning,0820.8,5.00,000.00,022.4,021.6,000.0,030.9,024.2,14.7,0000.0,0007.78,0003.09,0001.89
2024-03-29 06:56:00,SystemResetWarning,0820.4,5.00,000.00,022.4,021.6,000.0,030.9,024.2,14.4,0000.0,0007.88,0003.12,0001.91
2024-03-29 06:57:00,SystemResetWarning,0820.7,5.01,000.00,022.4,021.6,000.0,030.9,024.2,14.3,0000.0,0007.91,0003.15,0001.91
2024-03-29 06:58:00,SystemResetWarning,0820.4,5.00,000.00,022.4,021.6,000.0,030.9,024.2,14.3,0000.0,0007.81,0003.13,0001.93
2024-03-29 06:59:00,SystemResetWarning,0820.6,4.99,000.00,022.4,021.6,000.0,030.9,024.2,14.3,0000.0,0008.01,0003.16,0001.94
